Вернуться в каталог

KUIPER-00135

АктивенСвязьLEO
NORAD 65961·PAYLOAD·🇺🇸 United States

Запущен Oct 14, 2025 с Cape Canaveral Space Force Station

Loading…

Ближайшие Пролёты (ближайшие 24 часа)

TLE

СвежийSource: CelesTrak SupGP

Эпоха: Sep 14, 2026, 23:32 UTC

1 65961C 25228Q   26257.98059028 -.00001898  00000+0 -24843-3 0  2577
2 65961  51.9008 233.6629 0000633  72.3650  45.4326 14.79930535    19

Отслеживайте KUIPER-00135 в реальном времени с AllMySat

Download on the App Store